XMM-NEWTON (25989 NORAD) Tracking and Keplerian Element Data

This shows tracking and keplerian element data for the satellite.

Feedback or suggestion? Click here.




ElementValue
Catalog25989
NameXMM-NEWTON
Epoch Orbit2381
Epoch Day22.00724278
Epoch Year2019
RAAN337.7084
Inclination70.7504
Eccentricity0.7781071
Argument of Perigee95.4963
Mean Anonmoly0.4328
Mean Motion0.50136591
Decay Rate-1.21E-06
L11 25989U 99066A 19022.00724278 -.00000121 00000-0 00000+0 0 9991
L22 25989 70.7504 337.7084 7781071 95.4963 0.4328 0.50136591 23818

Live tracking and technical data element details for XMM-NEWTON (NORAD 25989). XMM-NEWTON can be tracked NOW for your location showing map with azimuth and elevation plus other details from your city location.

Track the satellite on the map from your city or location and see movement details for azimuth, elevation, latitude, longitude, range, height, and movement on the map or in text.







IsCatalogInMostPopularTable: catalog: 25989, numindb: 63
Update: records affected: 1



GetName: 25989 XMM-NEWTON

Hit Count: updated at: Mon, 21 Jan 2019 17:31:02 GMT